�������l�o���
Date,Time,MP-1(��Sv/h),MP-2(��Sv/h),MP-3(��Sv/h),MP-4(��Sv/h),MP-5(��Sv/h),MP-6(��Sv/h),MP-7(��Sv/h),MP-8(��Sv/h),����,����(m/s),���J
2021/02/17,00:00,0.639,0.926,0.596,1.163,0.808,0.375,0.662,0.622,��,11.0,�L
2021/02/17,00:10,0.643,0.926,0.593,1.164,0.810,0.375,0.660,0.621,��,11.1,��
2021/02/17,00:20,0.642,0.925,0.592,1.162,0.808,0.374,0.662,0.621,��,7.7,��
2021/02/17,00:30,0.643,0.925,0.594,1.165,0.808,0.375,0.662,0.620,��,6.9,��
2021/02/17,00:40,0.641,0.926,0.593,1.163,0.808,0.374,0.661,0.621,��,6.4,��
2021/02/17,00:50,0.643,0.923,0.591,1.162,0.807,0.374,0.661,0.622,��,5.7,��
2021/02/17,01:00,0.644,0.924,0.591,1.162,0.807,0.375,0.660,0.622,��,5.1,��
2021/02/17,01:10,0.642,0.925,0.593,1.163,0.808,0.375,0.661,0.621,���k��,6.4,��
2021/02/17,01:20,0.640,0.924,0.592,1.163,0.808,0.374,0.662,0.621,���k��,6.3,��
2021/02/17,01:30,0.643,0.925,0.594,1.162,0.811,0.375,0.660,0.622,���k��,7.8,��
2021/02/17,01:40,0.643,0.923,0.594,1.162,0.808,0.374,0.661,0.622,���k��,7.9,��
2021/02/17,01:50,0.641,0.924,0.593,1.163,0.809,0.374,0.661,0.621,���k��,8.0,��
2021/02/17,02:00,0.642,0.924,0.593,1.163,0.807,0.373,0.661,0.621,���k��,7.9,��
2021/02/17,02:10,0.641,0.923,0.593,1.164,0.807,0.373,0.661,0.623,���k��,7.2,��
2021/02/17,02:20,0.642,0.923,0.593,1.162,0.806,0.375,0.661,0.622,��,8.1,��
2021/02/17,02:30,0.643,0.922,0.592,1.162,0.809,0.373,0.659,0.622,��,8.2,��
2021/02/17,02:40,0.643,0.924,0.591,1.164,0.808,0.374,0.661,0.623,��,9.1,��
2021/02/17,02:50,0.642,0.924,0.591,1.163,0.808,0.374,0.660,0.621,��,9.0,��
2021/02/17,03:00,0.641,0.924,0.593,1.162,0.808,0.375,0.660,0.621,��,9.7,��
2021/02/17,03:10,0.642,0.923,0.592,1.164,0.808,0.374,0.661,0.622,��,8.3,��
2021/02/17,03:20,0.644,0.924,0.594,1.161,0.809,0.374,0.663,0.621,��,8.4,��
2021/02/17,03:30,0.642,0.923,0.592,1.164,0.810,0.374,0.662,0.622,��,8.0,��
2021/02/17,03:40,0.641,0.926,0.594,1.164,0.810,0.374,0.662,0.622,��,7.3,��
2021/02/17,03:50,0.641,0.924,0.592,1.163,0.809,0.374,0.663,0.621,��,7.1,��
2021/02/17,04:00,0.643,0.925,0.593,1.163,0.809,0.374,0.662,0.622,��,7.7,��
2021/02/17,04:10,0.643,0.923,0.593,1.163,0.808,0.374,0.661,0.620,��,8.8,��
2021/02/17,04:20,0.641,0.924,0.593,1.163,0.807,0.373,0.662,0.623,��,7.2,��
2021/02/17,04:30,0.640,0.923,0.593,1.163,0.808,0.373,0.661,0.621,��,7.0,��
2021/02/17,04:40,0.641,0.926,0.592,1.164,0.810,0.374,0.661,0.621,��,7.5,��
2021/02/17,04:50,0.642,0.924,0.594,1.165,0.808,0.375,0.662,0.622,��,7.2,��
2021/02/17,05:00,0.642,0.924,0.594,1.162,0.807,0.375,0.661,0.622,��,8.3,��
2021/02/17,05:10,0.642,0.925,0.594,1.163,0.807,0.374,0.662,0.622,��,6.7,��
2021/02/17,05:20,0.641,0.923,0.594,1.160,0.808,0.373,0.662,0.621,��,4.8,��
2021/02/17,05:30,0.641,0.923,0.592,1.162,0.808,0.371,0.661,0.619,��,4.4,��
2021/02/17,05:40,0.642,0.922,0.593,1.163,0.806,0.373,0.661,0.621,��,3.9,��
2021/02/17,05:50,0.642,0.922,0.592,1.163,0.808,0.373,0.661,0.622,���k��,4.1,��
2021/02/17,06:00,0.642,0.921,0.593,1.164,0.808,0.373,0.660,0.621,��,5.0,��
2021/02/17,06:10,0.642,0.924,0.593,1.162,0.807,0.373,0.661,0.623,��,4.9,��
2021/02/17,06:20,0.641,0.922,0.593,1.165,0.807,0.373,0.661,0.622,���k��,7.4,��
2021/02/17,06:30,0.642,0.922,0.592,1.162,0.808,0.373,0.659,0.621,��,7.1,��
2021/02/17,06:40,0.641,0.922,0.592,1.164,0.808,0.373,0.661,0.621,��,5.0,��
2021/02/17,06:50,0.642,0.923,0.591,1.164,0.808,0.373,0.660,0.621,��,6.1,��
2021/02/17,07:00,0.640,0.923,0.591,1.164,0.807,0.373,0.660,0.621,��,6.7,��
2021/02/17,07:10,0.642,0.921,0.591,1.163,0.809,0.373,0.662,0.622,��,6.9,��
2021/02/17,07:20,0.643,0.923,0.592,1.165,0.809,0.373,0.661,0.623,��,7.5,��
2021/02/17,07:30,0.642,0.923,0.592,1.164,0.809,0.372,0.661,0.622,��,8.0,��
2021/02/17,07:40,0.642,0.923,0.592,1.163,0.809,0.373,0.661,0.620,��,7.2,��
2021/02/17,07:50,0.642,0.924,0.593,1.165,0.810,0.373,0.661,0.620,��,6.0,��
2021/02/17,08:00,0.642,0.924,0.592,1.162,0.808,0.373,0.661,0.623,��,8.0,��
2021/02/17,08:10,0.643,0.926,0.594,1.166,0.810,0.374,0.662,0.621,���쐼,5.5,��
2021/02/17,08:20,0.643,0.923,0.593,1.164,0.809,0.373,0.663,0.622,��,7.6,��
2021/02/17,08:30,0.643,0.920,0.591,1.165,0.809,0.373,0.662,0.623,��,7.6,��
2021/02/17,08:40,0.643,0.921,0.594,1.162,0.809,0.373,0.661,0.622,��,7.4,��
2021/02/17,08:50,0.644,0.920,0.594,1.165,0.808,0.373,0.663,0.622,��,6.5,��
2021/02/17,09:00,0.645,0.919,0.594,1.164,0.808,0.374,0.662,0.622,��,7.6,��
2021/02/17,09:10,0.643,0.920,0.593,1.164,0.810,0.374,0.663,0.623,��,9.0,��
2021/02/17,09:20,0.644,0.919,0.593,1.166,0.809,0.374,0.661,0.623,��,10.0,��
2021/02/17,09:30,0.645,0.925,0.596,1.165,0.810,0.375,0.660,0.622,��,9.2,��
2021/02/17,09:40,0.642,0.924,0.596,1.165,0.811,0.374,0.662,0.623,��,9.3,��
2021/02/17,09:50,0.645,0.927,0.595,1.167,0.809,0.373,0.661,0.624,��,8.1,��
2021/02/17,10:00,0.644,0.925,0.596,1.165,0.810,0.374,0.661,0.623,��,9.5,��
2021/02/17,10:10,0.645,0.926,0.594,1.169,0.809,0.375,0.661,0.623,��,11.3,��
2021/02/17,10:20,0.643,0.921,0.594,1.168,0.810,0.375,0.661,0.623,��,10.6,��
2021/02/17,10:30,0.643,0.927,0.595,1.164,0.811,0.375,0.662,0.622,��,9.9,��
2021/02/17,10:40,0.645,0.928,0.596,1.167,0.811,0.374,0.662,0.623,��,9.5,��
2021/02/17,10:50,0.647,0.926,0.596,1.163,0.812,0.375,0.659,0.623,��,10.6,��
2021/02/17,11:00,0.643,0.924,0.594,1.166,0.813,0.377,0.662,0.623,��,9.5,��
2021/02/17,11:10,0.645,0.918,0.595,1.166,0.813,0.375,0.662,0.622,��,9.1,��
2021/02/17,11:20,0.646,0.923,0.595,1.165,0.813,0.376,0.661,0.625,��,11.0,��
2021/02/17,11:30,0.646,0.924,0.594,1.167,0.815,0.376,0.661,0.622,���k��,9.4,��
2021/02/17,11:40,0.645,0.922,0.595,1.167,0.814,0.375,0.662,0.624,��,11.4,��
2021/02/17,11:50,0.646,0.924,0.596,1.168,0.813,0.375,0.661,0.623,��,11.6,��
2021/02/17,12:00,0.646,0.930,0.597,1.165,0.814,0.377,0.661,0.623,��,9.5,��
2021/02/17,12:10,0.647,0.928,0.597,1.168,0.814,0.376,0.661,0.624,��,8.6,��
2021/02/17,12:20,0.646,0.929,0.596,1.166,0.814,0.376,0.661,0.625,��,7.7,��
2021/02/17,12:30,0.646,0.931,0.598,1.170,0.814,0.375,0.662,0.623,��,8.1,��
2021/02/17,12:40,0.645,0.932,0.596,1.170,0.813,0.375,0.661,0.625,��,8.0,��
2021/02/17,12:50,0.646,0.930,0.595,1.170,0.814,0.377,0.660,0.623,���k��,8.4,��
2021/02/17,13:00,0.648,0.929,0.596,1.168,0.816,0.378,0.664,0.624,��,7.4,��
2021/02/17,13:10,0.648,0.931,0.596,1.170,0.817,0.376,0.663,0.623,���k��,9.5,��
2021/02/17,13:20,0.647,0.932,0.598,1.169,0.816,0.376,0.660,0.624,���k��,7.2,��
2021/02/17,13:30,0.646,0.932,0.598,1.170,0.815,0.376,0.661,0.623,���k��,9.1,��
2021/02/17,13:40,0.647,0.930,0.598,1.168,0.814,0.377,0.662,0.624,���k��,7.8,��
2021/02/17,13:50,0.648,0.933,0.597,1.169,0.816,0.377,0.661,0.622,���k��,6.4,��
2021/02/17,14:00,0.645,0.933,0.596,1.172,0.817,0.377,0.661,0.624,���k��,6.3,��
2021/02/17,14:10,0.647,0.930,0.596,1.169,0.814,0.377,0.661,0.622,���k��,6.5,��
2021/02/17,14:20,0.645,0.934,0.597,1.172,0.816,0.378,0.662,0.622,���k��,8.0,��
2021/02/17,14:30,0.647,0.933,0.596,1.170,0.816,0.378,0.662,0.621,��,4.3,��
2021/02/17,14:40,0.645,0.934,0.597,1.171,0.816,0.377,0.660,0.621,�k��,7.1,��
2021/02/17,14:50,0.642,0.933,0.597,1.171,0.815,0.377,0.663,0.621,�k��,10.5,��
2021/02/17,15:00,0.644,0.932,0.597,1.172,0.815,0.378,0.660,0.623,���k��,7.9,��
2021/02/17,15:10,0.647,0.931,0.599,1.170,0.816,0.376,0.661,0.622,�k��,5.6,��
2021/02/17,15:20,0.645,0.934,0.598,1.172,0.817,0.376,0.661,0.623,���k��,5.2,��
2021/02/17,15:30,0.647,0.933,0.596,1.171,0.817,0.377,0.663,0.624,�k��,7.3,��
2021/02/17,15:40,0.646,0.934,0.597,1.172,0.817,0.376,0.662,0.623,�k��,7.5,��
2021/02/17,15:50,0.645,0.935,0.597,1.171,0.815,0.376,0.663,0.623,�k�k��,5.9,��
2021/02/17,16:00,0.646,0.935,0.595,1.170,0.816,0.376,0.663,0.623,�k,9.6,��
2021/02/17,16:10,0.646,0.938,0.597,1.171,0.816,0.377,0.662,0.624,�k�k��,9.5,��
2021/02/17,16:20,0.645,0.935,0.597,1.169,0.817,0.374,0.664,0.623,�k�k��,9.2,��
2021/02/17,16:30,0.645,0.933,0.597,1.168,0.818,0.374,0.662,0.622,�k�k��,7.5,��
2021/02/17,16:40,0.645,0.936,0.597,1.171,0.818,0.376,0.663,0.623,�k��,7.0,��
2021/02/17,16:50,0.645,0.934,0.598,1.174,0.817,0.375,0.664,0.624,�k��,4.1,��
2021/02/17,17:00,0.645,0.935,0.597,1.170,0.817,0.373,0.665,0.624,�k��,4.1,��
2021/02/17,17:10,0.645,0.935,0.596,1.171,0.819,0.377,0.664,0.622,�k��,4.7,��
2021/02/17,17:20,0.644,0.935,0.598,1.172,0.818,0.375,0.663,0.624,�k�k��,4.8,��
2021/02/17,17:30,0.645,0.934,0.597,1.171,0.818,0.375,0.663,0.623,�k�k��,4.6,��
2021/02/17,17:40,0.646,0.935,0.598,1.173,0.816,0.375,0.664,0.624,�k�k��,5.6,��
2021/02/17,17:50,0.645,0.935,0.598,1.174,0.817,0.375,0.663,0.624,�k�k��,5.9,��
2021/02/17,18:00,0.643,0.935,0.598,1.169,0.818,0.376,0.665,0.623,�k�k��,6.1,��
2021/02/17,18:10,0.646,0.934,0.598,1.171,0.817,0.376,0.665,0.624,�k�k��,5.1,��
2021/02/17,18:20,0.644,0.936,0.596,1.170,0.820,0.375,0.665,0.623,�k��,4.1,��
2021/02/17,18:30,0.645,0.936,0.597,1.172,0.817,0.376,0.664,0.624,�k��,4.2,��
2021/02/17,18:40,0.645,0.935,0.598,1.173,0.817,0.376,0.663,0.623,�k��,4.1,��
2021/02/17,18:50,0.646,0.935,0.598,1.171,0.817,0.376,0.663,0.624,�k�k��,4.3,��
2021/02/17,19:00,0.647,0.936,0.597,1.175,0.816,0.375,0.665,0.622,�k�k��,3.3,��
2021/02/17,19:10,0.644,0.935,0.598,1.170,0.817,0.375,0.665,0.624,�k��,3.1,��
2021/02/17,19:20,0.643,0.936,0.598,1.173,0.819,0.376,0.664,0.622,�k��,2.8,��
2021/02/17,19:30,0.646,0.935,0.598,1.171,0.818,0.375,0.665,0.622,���k��,2.6,��
2021/02/17,19:40,0.645,0.934,0.597,1.170,0.817,0.375,0.663,0.623,��,2.6,��
2021/02/17,19:50,0.646,0.935,0.597,1.169,0.819,0.375,0.662,0.623,���쐼,2.6,��
2021/02/17,20:00,0.645,0.934,0.598,1.169,0.818,0.376,0.663,0.623,���k��,2.0,��
2021/02/17,20:10,0.645,0.935,0.596,1.172,0.817,0.375,0.661,0.622,�k�k��,2.3,��
2021/02/17,20:20,0.645,0.935,0.596,1.170,0.818,0.375,0.663,0.623,�k�k��,2.2,��
2021/02/17,20:30,0.643,0.935,0.597,1.171,0.818,0.376,0.663,0.623,�k�k��,1.5,��
2021/02/17,20:40,0.645,0.935,0.595,1.171,0.816,0.375,0.662,0.623,�k�k��,2.3,��
2021/02/17,20:50,0.644,0.933,0.596,1.171,0.818,0.373,0.661,0.622,�k�k��,1.5,��
2021/02/17,21:00,0.644,0.933,0.597,1.169,0.818,0.375,0.663,0.622,�k�k��,1.4,��
2021/02/17,21:10,0.644,0.934,0.595,1.171,0.818,0.374,0.662,0.623,-,CALM,��
2021/02/17,21:20,0.644,0.936,0.596,1.171,0.817,0.374,0.661,0.622,��,1.7,��
2021/02/17,21:30,0.644,0.935,0.595,1.172,0.819,0.376,0.662,0.624,���쐼,1.5,��
2021/02/17,21:40,0.644,0.935,0.595,1.172,0.817,0.376,0.661,0.623,���쐼,2.6,��
2021/02/17,21:50,0.644,0.933,0.597,1.170,0.818,0.373,0.662,0.622,���쐼,1.5,��
2021/02/17,22:00,0.643,0.933,0.597,1.171,0.816,0.375,0.662,0.622,���쐼,1.9,��
2021/02/17,22:10,0.645,0.932,0.596,1.168,0.817,0.374,0.662,0.623,��,1.2,��
2021/02/17,22:20,0.644,0.934,0.596,1.171,0.816,0.374,0.663,0.624,���k��,3.8,��
2021/02/17,22:30,0.644,0.934,0.596,1.171,0.818,0.373,0.663,0.622,���k��,3.7,��
2021/02/17,22:40,0.644,0.934,0.594,1.172,0.817,0.374,0.662,0.621,�k��,4.5,��
2021/02/17,22:50,0.644,0.933,0.594,1.170,0.819,0.375,0.663,0.622,��,3.8,��
2021/02/17,23:00,0.644,0.934,0.597,1.172,0.816,0.376,0.662,0.622,��,6.7,��
2021/02/17,23:10,0.644,0.933,0.595,1.171,0.819,0.373,0.663,0.623,��,7.9,��
2021/02/17,23:20,0.644,0.933,0.595,1.170,0.817,0.374,0.663,0.623,��,13.0,��
2021/02/17,23:30,0.646,0.933,0.595,1.171,0.817,0.374,0.663,0.625,��,14.7,��
2021/02/17,23:40,0.644,0.933,0.596,1.171,0.814,0.372,0.664,0.623,��,15.8,��
2021/02/17,23:50,0.644,0.931,0.594,1.172,0.814,0.374,0.663,0.622,��,14.1,��
